Location: Berg
(48.5667°N, 13.9833°E)
Time: 01:46:22
(UTC+00:00)

Cosmos 1727 Rocket - Pass Details

Date: 09 April 2020
Orbit: 961 x 997 km, 82.9° (Epoch: 26 May)

Event Time Altitude Azimuth Distance (km) Brightness Sun altitude
Exits shadow 22:05:53 68° 30° (NNE) 1,064 4.2 -31.9°
Drops below altitude 10° 22:11:25 10° 11° (N) 2,769 7.1 -32.2°
Sets 22:13:57 0° 11° (N) 3,725 7.9 -32.3°
